www.pogodaiklimat.ru

Погода и климат >> Архив погоды >> Пакистан >> Karachi


АРХИВ ПОГОДЫ в Karachi

Время (UTC), дата Ветер
(напр.,м/с)
 
Видим.   Явления Облачность Т
(С)
Тd
(С)
f
(%)
Тe
(С)
Тes
(С)
Комфортность P
(гПа)
Po
(гПа)
Тmin
(С)
Tmax
(С)
R
(мм)
R24
(мм)
S
(см)
00 12.12 СВ 3 4000 м мгла ясно +19.0 +11.8 63 +20 +20 тепло 1015.8 1013.0
03 12.12 СВ 1 2000 м дым ясно +18.0 +12.7 71 +19 +20 по сезону 1017.9 1015.1 +16.1
06 12.12 СВ 2 2000 м дым ясно +22.0 +11.3 51 +24 +32 комфорт 1020.0 1017.3
09 12.12 ЮВ 1 2000 м мгла 3/3 600 м
[St]
+25.5 +12.7 45 +27 +34 жарко 1016.5 1013.8
12 12.12 В 1 2000 м мгла 4/0
[Ac trans]
+25.0 +10.8 41 +26 +27 жарко 1016.3 1013.6 +26.5
15 12.12 В 2 2000 м мгла ясно +23.0 +9.2 41 +24 +24 комфорт 1018.5 1015.8
18 12.12 СВ 1 4000 м мгла ясно +19.0 +9.6 54 +21 +21 комфорт 1019.5 1016.8
21 12.12 СВ 1 4000 м мгла ясно +18.0 +10.6 62 +19 +19 тепло 1019.8 1017.0
00 13.12 СВ 2 4000 м мгла ясно +17.0 +11.5 70 +18 +18 тепло 1020.1 1017.3
03 13.12 СВ 1 2000 м дым ясно +16.0 +10.4 69 +17 +17 прохладно 1021.8 1019.0 +14.1
06 13.12 СВ 2 4000 м мгла ясно +22.0 +9.0 43 +23 +31 комфорт 1023.1 1021.3
09 13.12 СВ 2 4000 м мгла ясно +25.5 +3.3 24 +25 +33 комфорт 1020.6 1017.9
12 13.12 СВ 2 4000 м ясно +25.0 +0.4 20 +24 +24 комфорт 1018.8 1016.1 +26.5
15 13.12 СВ 1 4000 м ясно +20.0 +3.1 33 +21 +21 комфорт 1021.0 1018.2
18 13.12 СВ 1 4000 м ясно +17.5 +3.6 40 +19 +19 тепло 1022.4 1019.6
21 13.12 СВ 1 4000 м ясно +17.0 +7.0 52 +19 +19 тепло 1021.8 1019.0
00 14.12 СВ 1 4000 м ясно +14.0 +5.6 57 +15 +15 по сезону 1022.1 1019.2
03 14.12 СВ 1 4000 м мгла ясно +15.0 +5.6 53 +16 +17 прохладно 1023.9 1021.1 +11.1
06 14.12 СВ 3 4000 м мгла ясно +22.1 +5.8 35 +23 +30 комфорт 1024.8 1022.1
09 14.12 СВ 3 4000 м мгла ясно +25.0 +0.4 20 +24 +31 комфорт 1021.9 1019.2
12 14.12 СВ 3 4000 м ясно +24.5 +1.2 22 +23 +24 комфорт 1020.7 1018.0 +25.5
15 14.12 СВ 2 4000 м ясно +20.0 +3.1 33 +21 +21 комфорт 1022.4 1019.6
18 14.12 СВ 2 4000 м ясно +18.0 +5.8 45 +19 +19 тепло 1023.2 1020.4
21 14.12 СВ 2 4000 м ясно +17.0 +5.7 47 +18 +18 тепло 1022.8 1020.0
00 15.12 СВ 2 4000 м ясно +16.0 +6.9 55 +16 +16 тепло 1022.9 1020.1
03 15.12 СВ 2 2000 м мгла ясно +15.5 +6.3 54 +16 +16 прохладно 1023.7 1020.9 +12.5
06 15.12 СВ 7 2000 м мгла ясно +21.0 +3.2 31 +21 +23 комфорт 1023.8 1021.1
09 15.12 СВ 4 4000 м мгла ясно +23.5 +1.0 23 +23 +29 комфорт 1020.5 1017.8
12 15.12 СВ 4 4000 м мгла ясно +23.0 0.0 22 +22 +22 комфорт 1019.5 1016.8 +24.3
15 15.12 СВ 3 4000 м мгла ясно +19.5 +3.8 35 +20 +20 прохладно 1021.1 1018.4
18 15.12 СВ 3 4000 м мгла ясно +18.5 +5.2 42 +19 +19 тепло 1022.1 1019.3
21 15.12 СВ 2 4000 м мгла ясно +16.5 +5.0 46 +17 +17 по сезону 1022.1 1019.3
00 16.12 СВ 2 4000 м мгла ясно +15.0 +4.3 49 +15 +15 по сезону 1023.2 1020.4
03 16.12 СВ 1 4000 м мгла ясно +15.0 +6.9 58 +16 +16 прохладно 1024.2 1021.4 +12.5
06 16.12 СВ 3 4000 м мгла ясно +21.0 +4.8 35 +22 +29 комфорт 1024.5 1021.8
09 16.12 СВ 4 4000 м мгла ясно +24.0 +2.0 24 +23 +29 комфорт 1020.5 1017.8
12 16.12 СВ 4 4000 м мгла ясно +23.5 -3.2 17 +22 +22 комфорт 1019.4 1016.7 +25.1
15 16.12 СВ 3 4000 м мгла ясно +20.0 -0.4 25 +20 +20 прохладно 1021.5 1018.8
18 16.12 СВ 3 4000 м мгла ясно +18.5 -1.5 26 +19 +19 тепло 1022.9 1020.1
21 16.12 СВ 3 4000 м мгла ясно +17.5 +2.1 36 +18 +18 тепло 1021.5 1018.7
00 17.12 СВ 3 4000 м мгла ясно +16.0 +1.2 37 +16 +16 тепло 1021.2 1018.4
03 17.12 СВ 2 2000 м мгла ясно +11.5 +0.7 47 +11 +12 очень
холодно
1022.3 1019.4 +10.1
06 17.12 СВ 3 4000 м мгла ясно +21.0 +1.5 27 +22 +29 комфорт 1023.0 1020.2
09 17.12 СВ 3 4000 м мгла ясно +24.5 -0.8 19 +23 +30 комфорт 1019.6 1016.9
12 17.12 СВ 5 4000 м ясно +25.5 -5.4 13 +23 +23 комфорт 1018.5 1015.8 +26.5
15 17.12 СВ 1 4000 м мгла ясно +20.0 -2.5 22 +21 +21 комфорт 1020.9 1018.1
18 17.12 СВ 1 4000 м мгла ясно +17.0 -2.5 26 +18 +18 по сезону 1021.0 1018.2
21 17.12 штиль 0 4000 м мгла ясно +14.0 -4.4 28 +14 +14 по сезону 1021.1 1018.2
00 18.12 СВ 1 4000 м мгла ясно +12.0 -0.2 43 +13 +13 по сезону 1019.8 1016.9
03 18.12 СВ 1 4000 м мгла ясно +12.5 +2.0 49 +14 +14 холодно 1020.0 1017.1 +9.1
06 18.12 СВ 1 4000 м мгла ясно +22.0 +1.7 26 +22 +31 комфорт 1021.9 1019.1
09 18.12 СВ 1 4000 м мгла ясно +25.0 -1.7 17 +23 +33 комфорт 1019.5 1016.8
12 18.12 С 1 4000 м ясно +26.0 -3.9 14 +24 +24 комфорт 1017.7 1015.0 +26.5
15 18.12 штиль 0 4000 м ясно +20.5 +8.1 45 +21 +21 комфорт 1018.7 1015.9
18 18.12 штиль 0 4000 м мгла ясно +18.0 +5.8 45 +18 +18 по сезону 1019.5 1016.7

 

Местоположение метеостанции Karachi (Пакистан): широта 24.90 долгота 67.13 высота над уровнем моря 22 м.

В архиве по умолчанию представлена погода в Karachi за последнюю неделю. Архивные данные за месяц целиком и за предыдущие месяцы, начиная с января 2011 года, Вы можете получить, выбрав интересующий диапазон дат из раскрывающегося списка и нажав кнопку "Ввод!".


*Определитесь, кто Вы:
робот инопланетянин человек

Внимание! Время в таблицах - всемирное. Для получения местного времени необходимо прибавить поправку, которая в Karachi равна 5 ч.

Смотрите также архив погоды в соседних городах и на ближайших метеорологических станциях:

Погода в Sakrand (Пакистан) (118 км)
Погода в Hyderabad (Пакистан) (140 км)
Погода в Badin (Пакистан) (181 км)
Погода в Nawabshah (Пакистан) (195 км)
Погода в Pad Idan (Пакистан) (239 км)
Погода в Naliya (Gujarat, Индия) (253 км)
Погода в Chhor (Пакистан) (275 км)
Погода в Bhuj-Rudramata (Gujarat, Индия) (317 км)
Погода в Mandvi (Gujarat, Индия) (318 км)
Погода в Khuzdar (Пакистан) (330 км)

Пояснения к столбцам:

Ветер - указаны скорость ветра в м/с - средняя за 10 мин, порывы в срок и между сроками (в фигурных скобках) и направление, откуда дует ветер: С - северный, СВ - северо-восточный, В - восточный, ЮВ - юго-восточный, Ю - южный, ЮЗ - юго-западный, З - западный, СЗ - северо-западный.
Видимость - горизонтальная дальность видимости в метрах или километрах. При видимости от 1 до 10 км при отсутствии осадков обычно наблюдается дымка, при ухудшении видимости до 1 км и менее - туман. В сухую погоду видимость может ухудшаться дымом, пылью или мглою.
Явления - указаны атмосферные явления, наблюдавшиеся в срок или в последний час перед сроком; фигурными скобками обозначены явления, наблюдавшиеся между сроками (за 1-3 часа до срока); квадратными скобками обозначены град или гололедные отложения с указанием их диаметра в мм.
Облачность - указаны через наклонную черту общая и нижняя облачность в баллах и высота нижней границы облаков в метрах; квадратными скобками обозначены формы облаков: Ci - перистые, Cs - перисто-слоистые, Cc - перисто-кучевые, Ac - высококучевые, As - высокослоистые, Sc - слоисто-кучевые, Ns - слоисто-дождевые, Cu - кучевые, Cb - кучево-дождевые. Подробнее классификацию облаков см. в Атласе облаков (PDF).
T - Температура воздуха - температура, измеренная на высоте 2 м над землей.
Td - Температура точки росы - температура, при понижении до которой содержащийся в воздухе водяной пар достигнет насыщения.
f - Относительная влажность воздуха - влажноcть воздуха, измеренная на высоте 2 м над землей.
Te - Эффективная температура - температура, которую ощущает одетый по сезону человек в тени. Характеристика душности погоды. При расчете учитывается влияние влажности воздуха и скорости ветра на теплоощущения человека.
Tes - Эффективная температура на солнце - температура, которую ощущает человек, с поправкой на солнечный нагрев. Характеристика знойности погоды. Зависит от высоты солнца над горизонтом, облачности и скорости ветра. Ночью, в пасмурную погоду, а также при ветре 12 м/с и более поправка равна нулю.
P - Атмосферное давление - приведенное к уровню моря атмосферное давление.
Po - Атмосферное давление - измеренное на уровне метеостанции атмосферное давление.
Tmin - Минимальная температура - минимум температуры воздуха на высоте 2 м над землей.
Tmax - Максимальная температура - максимум температуры воздуха на высоте 2 м над землей.
R - Количество осадков - Количество выпавших осадков за период времени, мм. При наведении курсора мыши на число - период времени, за который выпало указанное количество осадков.
R24 - Количество осадков - Количество выпавших осадков за 24 часа, мм.
S - Снежный покров - Высота снежного покрова, см. При наведении курсора мыши на число - состояние снежного покрова и степень покрытия местности в баллах.